BEIDOU-3 M19 (44864 NORAD) Tracking and Keplerian Element Data

This shows tracking and keplerian element data for the satellite.

Feedback or suggestion? Click here.




ElementValue
Catalog44864
NameBEIDOU-3 M19
Epoch Orbit69
Epoch Day22.1965819
Epoch Year2020
RAAN141.135
Inclination55.0262
Eccentricity0.0013533
Argument of Perigee256.2996
Mean Anonmoly206.0039
Mean Motion1.86231722
Decay Rate-4.4E-07
L11 44864U 19090A 20022.19658190 -.00000044 00000-0 00000-0 0 9999
L22 44864 55.0262 141.1350 0013533 256.2996 206.0039 1.86231722 694

Live tracking and technical data element details for BEIDOU-3 M19 (NORAD 44864). BEIDOU-3 M19 can be tracked NOW for your location showing map with azimuth and elevation plus other details from your city location.

Track the satellite on the map from your city or location and see movement details for azimuth, elevation, latitude, longitude, range, height, and movement on the map or in text.







IsCatalogInMostPopularTable: catalog: 44864, numindb: 7
Update: records affected: 1



GetName: 44864 BEIDOU-3 M19

Hit Count: updated at: Fri, 24 Jan 2020 13:26:49 GMT